Location: Albuquerque Trailhead
(34.7934°N, 106.3736°W)
Time: 13:22:36
(UTC+00:00)

DELTA 2 R/B (1) - Pass Details

Date: 20 June 2021
Orbit: 789 x 803 km, 39.6° (Epoch: 30 July)

Event Time Altitude Azimuth Distance (km) Brightness Sun altitude
Exits shadow 08:40:28 39° 299° (WNW) 1,163 4.4 -27.7°
Maximum altitude 08:42:11 55° 352° (N) 942 4.1 -27.6°
Drops below altitude 10° 08:47:37 10° 70° (ENE) 2,349 6.6 -27.1°
Sets 08:50:09 0° 75° (ENE) 3,281 7.3 -26.9°
